COSMOS 1275 DEB, 12659

Orbit data source: Space-Track

COSMOS 1275 DEB, 12659 is space debris in LEO originally from a launch on Thu, 04 Jun 1981 UTC launched from the Plesetsk Missile And Space Complex (PKMTR). Debris objects in space refer to the collection of defunct objects orbiting the Earth. Examples of debris include non-operational satellites, rocket bodies, and fragments generated from explosions, collisions, or faulty payload assembly.

Loading next visibility...
Identifier
12659, 1981-053P
Orbit
LEO
Country
Flag of CISCIS
Related business
Manufacturer
Unknown
Mission
Spacecraft
Bus & Motor
Unknown
Mass
Unknown
Launch date (UTC)
1981-06-04 (44 years ago)
Launch vehicle
Unknown
Launch site
Plesetsk Missile And Space Complex (PKMTR)
Object type
Payload
Rocket body
Debris
Shape & HBR
Unknown shape, 0.1 m
Radar Cross Section
Medium (>0.1 m² and <1 m²)

Expand to show TLE details & history
Last TLE update: 17 hours ago

TLE from 17 hours ago
0 COSMOS 1275 DEB
1 12659U 81053P   25296.80530449  .00001855  00000-0  14811-2 0  9993
2 12659  82.7435  46.5316 0065583 164.3157 352.2037 13.89461664221750
Epoch: 2025-10-23T19:19Z
TLE epoch observation values (Epoch: 2025-10-23T19:19:38.307Z)
Latitude
23.40412°
Longitude
-98.97995°
Altitude
885.866 km
Speed
7.435 km/s
True Right ascension
14h 53m 33s
True Declination
23° 16' 52"
Sunlit
Object was in daylight at epoch
Visualization orbit readout
Latitude
Unknown
Longitude
Unknown
Altitude
Unknown
Speed
Unknown
Apparent Right ascension
Unknown
Apparent Declination
Unknown
Sunlit
N/A
Visualization observer readout
Local Sidereal Time
07:25:42
Azimuth
Unknown
Elevation
Unknown
Doppler factor
Unknown
Orbital elements
Apogee altitude
975.568 km
Perigee altitude
879.741 km
Semi-major axis
7,305.791 km
Eccentricity
0.00656
Inclination
82.7435°
RAAN
46.5316°
Arg. of periapsis
164.3157°
True anomaly
352.10092°
Mean anomaly
352.2037°
Eccentric anomaly
352.15239°
Mean motion
3.4757 °/min
Orbital period
103.58 mins
BSTAR
0.0014811

Documentation

Showing up to 5 results
|